Location: Clanezzo
(45.7500°N, 9.6000°E)
Time: 04:16:43
(UTC+00:00)

CZ-4C R/B - Pass Details

Date: 12 May 2021
Orbit: 609 x 1393 km, 63.4° (Epoch: 18 June)

Event Time Altitude Azimuth Distance (km) Brightness Sun altitude
Rises 19:13:29 0° 322° (NW) 3,743 7.2 -5.4°
Reaches altitude 10° 19:16:01 10° 327° (NNW) 2,900 6.3 -5.8°
Maximum altitude 19:22:54 53° 44° (NE) 1,461 3.4 -6.8°
Drops below altitude 10° 19:30:57 10° 120° (ESE) 3,373 4.6 -7.9°
Enters shadow 19:31:15 - 120° (ESE) 3,470 4.7 -8.0°
